Zurück zum Katalog

BREEZE-M DEB

AktivHEO
NORAD 41318·DEBRIS·🇷🇺 Russia

Gestartet May 17, 2012 von Baikonur Cosmodrome

Loading…

Nächste Überflüge (nächste 24 Stunden)

TLE

AktuellSource: Space-Track

Epoche: Sep 14, 2026, 05:01 UTC

1 41318U 12026E   26257.20961724 -.00000124  00000-0  00000-0 0  9999
2 41318  10.1733 133.9879 4104135  52.9308 338.1333  1.76519876 68760

Verfolge BREEZE-M DEB in Echtzeit mit AllMySat

Download on the App Store